Вернуться в каталог

BREEZE-M R/B

АктивенHEO
NORAD 41192·ROCKET BODY·🇷🇺 Russia

Запущен Dec 24, 2015 с Baikonur Cosmodrome

Loading…

Ближайшие Пролёты (ближайшие 24 часа)

TLE

СвежийSource: Space-Track

Эпоха: Sep 14, 2026, 06:39 UTC

1 41192U 15082B   26257.27719123 -.00000097  00000-0  00000-0 0  9994
2 41192  23.0706  56.2635 6007088 203.1430 111.4189  2.16570124 84843

Отслеживайте BREEZE-M R/B в реальном времени с AllMySat

Download on the App Store